Weather History for Andrews, NC

Change the Weather History Date:

Thursday, December 6, 2012

  Actual Average (KTYS) Record (KTYS)
Temperature  
Mean Temperature 55 °F 43 °F  
Max Temperature 64 °F 52 °F 74 °F (1998)
Min Temperature 47 °F 33 °F 9 °F (1871)
Degree Days  
Heating Degree Days 10 22  
Month to date heating degree days 129  
Since 1 July heating degree days 810  
Cooling Degree Days 0 0  
Month to date cooling degree days 0  
Year to date cooling degree days 1526  
Growing Degree Days 5 (Base 50)    
Moisture  
Dew Point 53 °F    
Average Humidity 91    
Maximum Humidity 100    
Minimum Humidity 69    
Precipitation  
Precipitation 0.01 in 0.15 in 2.50 in (1936)
Month to date precipitation 0.93  
Year to date precipitation 44.29  
Snow  
Snow 0.00 in 0.00 in - ()
Month to date snowfall 0.1  
Since 1 July snowfall 0.1  
Snow Depth -    
Sea Level Pressure  
Sea Level Pressure 30.16 in    
Wind  
Wind Speed 0 mph (ENE)    
Max Wind Speed 5 mph    
Max Gust Speed -    
Visibility 9 miles    
Events      
T = Trace of Precipitation, MM = Missing Value Source: NWS Daily Summary

Daily Weather History Graph

Daily Weather History Graph

Search for Another Location

Airport:

Trip Planner

Search our weather history database for the weather conditions in past years. The results will help you decide how hot, cold, wet, or windy it might be!

Date:

Astronomy

Dec. 06, 2012 Rise Set
Actual Time 7:30 AM EST 5:23 PM EST
Civil Twilight 7:02 AM EST 5:51 PM EST
Nautical Twilight 6:30 AM EST 6:22 PM EST
Astronomical Twilight 5:59 AM EST 6:53 PM EST
Moon 12:00 AM EST (12/6) 12:35 PM EST (12/6)
Length of Visible Light 10h 48m
Length of Day
9h 52m
Waning Gibbous, 49% of the Moon is Illuminated
Dec 6
Waning Gibbous
Dec 13
New
Dec 20
First Quarter
Dec 28
Full
Jan 4
Last Quarter

Hourly Weather History & Observations

Time (EST) Temp. Dew Point Humidity Pressure Visibility Wind Dir Wind Speed Gust Speed Precip Events Conditions
12:15 AM 55.0 °F 55.0 °F 100% 30.17 in 10.0 mi Calm Calm - N/A   Overcast
12:35 AM 54.9 °F 54.9 °F 100% 30.16 in 10.0 mi Calm Calm - N/A   Overcast
12:55 AM 54.0 °F 54.0 °F 100% 30.16 in 10.0 mi Calm Calm - N/A   Overcast
1:15 AM 53.2 °F 53.2 °F 100% 30.16 in 7.0 mi Calm Calm - N/A   Overcast
1:35 AM 53.2 °F 53.2 °F 100% 30.16 in 10.0 mi Calm Calm - N/A   Overcast
1:55 AM 53.1 °F 53.1 °F 100% 30.16 in 10.0 mi Calm Calm - N/A   Overcast
2:15 AM 53.1 °F 53.1 °F 100% 30.16 in 7.0 mi Calm Calm - N/A   Overcast
2:35 AM 53.4 °F 53.4 °F 100% 30.16 in 7.0 mi Calm Calm - N/A   Overcast
2:55 AM 53.6 °F 53.6 °F 100% 30.16 in 7.0 mi Calm Calm - N/A   Overcast
3:15 AM 54.0 °F 54.0 °F 100% 30.17 in 10.0 mi Calm Calm - N/A   Overcast
3:35 AM 54.1 °F 54.1 °F 100% 30.16 in 7.0 mi Calm Calm - N/A   Overcast
3:55 AM 54.1 °F 54.1 °F 100% 30.16 in 7.0 mi Calm Calm - N/A   Overcast
4:15 AM 54.1 °F 54.1 °F 100% 30.16 in 7.0 mi Calm Calm - N/A   Overcast
4:35 AM 54.3 °F 54.3 °F 100% 30.16 in 7.0 mi Calm Calm - N/A   Overcast
4:55 AM 54.1 °F 54.1 °F 100% 30.16 in 7.0 mi Calm Calm - N/A   Overcast
5:15 AM 54.1 °F 54.1 °F 100% 30.16 in 7.0 mi Calm Calm - N/A   Overcast
5:35 AM 54.5 °F 54.5 °F 100% 30.16 in 7.0 mi Calm Calm - N/A   Overcast
5:55 AM 54.5 °F 54.5 °F 100% 30.17 in 7.0 mi Calm Calm - N/A   Overcast
6:15 AM 54.5 °F 54.5 °F 100% 30.18 in 7.0 mi Calm Calm - N/A   Overcast
6:35 AM 54.5 °F 54.5 °F 100% 30.18 in 7.0 mi Calm Calm - N/A   Overcast
6:55 AM 54.7 °F 54.7 °F 100% 30.18 in 10.0 mi Calm Calm - N/A   Overcast
7:15 AM 54.9 °F 54.9 °F 100% 30.19 in 10.0 mi Calm Calm - N/A   Overcast
7:35 AM 55.0 °F 55.0 °F 100% 30.19 in 7.0 mi Calm Calm - N/A   Overcast
7:55 AM 55.0 °F 55.0 °F 100% 30.20 in 7.0 mi Calm Calm - N/A   Overcast
8:15 AM 55.6 °F 55.6 °F 100% 30.20 in 10.0 mi Calm Calm - N/A   Overcast
8:35 AM 55.8 °F 55.8 °F 100% 30.20 in 10.0 mi Calm Calm - N/A   Overcast
8:55 AM 56.3 °F 56.3 °F 100% 30.20 in 10.0 mi Calm Calm - N/A   Overcast
9:15 AM 57.2 °F 55.6 °F 94% 30.20 in 10.0 mi Calm Calm - N/A   Overcast
9:35 AM 58.1 °F 55.0 °F 90% 30.20 in 10.0 mi Calm Calm - N/A   Overcast
9:55 AM 59.0 °F 54.9 °F 86% 30.20 in 10.0 mi NE 3.5 mph - N/A   Overcast
10:15 AM 59.0 °F 55.0 °F 87% 30.20 in 10.0 mi ENE 4.6 mph - N/A   Overcast
10:35 AM 59.0 °F 54.3 °F 84% 30.20 in 10.0 mi ENE 4.6 mph - N/A   Overcast
10:55 AM 59.7 °F 54.5 °F 83% 30.20 in 10.0 mi NE 3.5 mph - N/A   Overcast
11:15 AM 59.5 °F 53.8 °F 81% 30.20 in 10.0 mi ENE 3.5 mph - N/A   Overcast
11:35 AM 59.5 °F 52.9 °F 79% 30.18 in 10.0 mi ENE 4.6 mph - N/A   Overcast
11:55 AM 61.9 °F 54.9 °F 78% 30.18 in 10.0 mi ENE 3.5 mph - N/A   Overcast
12:15 PM 62.6 °F 55.9 °F 79% 30.17 in 10.0 mi NE 4.6 mph - N/A   Overcast
12:35 PM 63.3 °F 56.7 °F 79% 30.17 in 10.0 mi ENE 3.5 mph - N/A   Overcast
12:55 PM 63.5 °F 56.3 °F 77% 30.16 in 10.0 mi Calm Calm - N/A   Overcast
1:15 PM 63.9 °F 56.5 °F 77% 30.15 in 10.0 mi Calm Calm - N/A   Overcast
1:35 PM 63.7 °F 56.3 °F 77% 30.14 in 10.0 mi Calm Calm - N/A   Overcast
1:55 PM 63.5 °F 55.2 °F 74% 30.13 in 10.0 mi Calm Calm - N/A   Overcast
2:15 PM 62.4 °F 52.9 °F 71% 30.12 in 10.0 mi Calm Calm - N/A   Overcast
2:35 PM 60.1 °F 49.8 °F 69% 30.12 in 10.0 mi Calm Calm - N/A   Overcast
2:55 PM 59.9 °F 50.0 °F 70% 30.13 in 10.0 mi Calm Calm - N/A   Overcast
3:15 PM 59.9 °F 50.4 °F 71% 30.13 in 10.0 mi Calm Calm - N/A   Overcast
3:35 PM 59.5 °F 50.7 °F 73% 30.13 in 10.0 mi Calm Calm - N/A   Overcast
3:55 PM 58.8 °F 51.6 °F 77% 30.13 in 10.0 mi Calm Calm - N/A   Overcast
4:15 PM 58.1 °F 52.0 °F 80% 30.13 in 10.0 mi Calm Calm - N/A   Overcast
4:35 PM 57.7 °F 50.5 °F 77% 30.14 in 10.0 mi Calm Calm - N/A   Overcast
4:55 PM 57.9 °F 50.4 °F 76% 30.13 in 10.0 mi Calm Calm - N/A   Overcast
5:15 PM 57.4 °F 50.4 °F 77% 30.13 in 10.0 mi Calm Calm - N/A   Overcast
5:35 PM 56.5 °F 50.7 °F 81% 30.14 in 10.0 mi Calm Calm - N/A   Overcast
5:55 PM 55.6 °F 52.5 °F 89% 30.13 in 10.0 mi Calm Calm - N/A   Overcast
6:15 PM 54.9 °F 52.7 °F 92% 30.14 in 10.0 mi Calm Calm - N/A   Overcast
6:35 PM 55.0 °F 52.3 °F 91% 30.13 in 10.0 mi Calm Calm - N/A   Overcast
6:55 PM 54.1 °F 51.3 °F 90% 30.12 in 10.0 mi Calm Calm - N/A   Mostly Cloudy
7:15 PM 53.4 °F 50.7 °F 91% 30.12 in 10.0 mi Calm Calm - N/A   Mostly Cloudy
7:35 PM 51.8 °F 49.8 °F 93% 30.12 in 10.0 mi Calm Calm - N/A   Scattered Clouds
7:55 PM 49.5 °F 48.2 °F 95% 30.13 in 10.0 mi Calm Calm - N/A   Scattered Clouds
8:15 PM 47.5 °F 46.6 °F 97% 30.14 in 10.0 mi Calm Calm - N/A   Scattered Clouds
8:35 PM 47.1 °F 46.2 °F 97% 30.14 in 10.0 mi Calm Calm - N/A   Scattered Clouds
8:55 PM 48.4 °F 47.5 °F 97% 30.14 in 10.0 mi Calm Calm - N/A   Mostly Cloudy
9:35 PM 48.4 °F 48.0 °F 99% 30.14 in 7.0 mi Calm Calm - N/A   Overcast
9:55 PM 49.1 °F 48.4 °F 97% 30.13 in 10.0 mi Calm Calm - N/A   Overcast
10:15 PM 49.6 °F 48.6 °F 96% 30.13 in 10.0 mi Calm Calm - N/A   Overcast
10:35 PM 50.0 °F 49.1 °F 97% 30.13 in 10.0 mi Calm Calm - N/A   Overcast
10:55 PM 50.2 °F 49.5 °F 97% 30.13 in 10.0 mi Calm Calm - N/A   Overcast
11:15 PM 50.2 °F 49.6 °F 98% 30.12 in 10.0 mi Calm Calm - N/A   Overcast
11:35 PM 50.2 °F 49.6 °F 98% 30.13 in 10.0 mi Calm Calm - N/A   Overcast
11:55 PM 50.4 °F 50.0 °F 99% 30.13 in 10.0 mi Calm Calm - N/A   Overcast